Theta_e
309 306 313 320 321 328 333 335 338 338 337 331 330 327 328 331 331 331 331 329 330 326 326 326 326 327 327 327 328 326 327 327 327 329 334 343 339 337 342 339 340 343 345 345 342 342 343 344 343 342 339 337 338 337 337 338 337 338 338 337 337 337 336 335 334 334 334 333 331 333 335 336 336 337 337 336 337 337 338 337 334 333 333 333 335 335 334 335 337 336 336 337 336 334 333 333 332
310 310 316 319 322 330 334 336 336 334 332 328 329 329 329 332 331 330 330 328 328 326 325 326 325 327 326 327 327 326 328 326 329 333 335 339 338 340 339 339 343 342 345 344 342 342 343 344 343 342 338 337 338 337 338 337 337 338 338 338 338 338 337 336 335 336 336 335 331 331 335 336 336 338 337 336 336 337 338 337 336 335 334 334 334 335 335 336 337 337 337 336 335 333 332 331 331
312 315 318 319 325 330 331 332 332 328 328 326 327 331 332 332 331 330 329 327 326 326 325 325 326 326 326 328 327 328 329 326 329 334 334 335 337 340 338 339 344 342 344 344 343 343 343 344 343 341 337 337 338 337 338 336 337 338 338 338 338 338 338 337 336 336 337 337 335 333 336 338 337 338 338 337 337 337 337 337 337 335 335 335 335 335 336 336 337 337 337 335 334 332 332 330 328
314 317 317 319 326 331 333 331 331 328 327 326 325 332 334 332 332 329 328 327 326 326 326 326 326 326 326 327 328 328 328 327 327 335 337 335 336 338 338 340 343 343 345 344 343 343 343 343 342 339 337 338 337 338 338 337 337 337 337 337 338 337 338 338 337 337 338 338 338 337 337 338 338 338 338 338 337 337 337 336 336 334 335 336 335 335 336 336 337 336 336 335 334 332 332 331 327
315 317 317 319 326 329 332 332 331 329 328 328 326 332 333 332 331 329 329 327 326 326 326 326 327 326 326 327 326 327 329 328 328 335 337 336 337 337 338 340 342 343 344 345 343 343 343 343 340 338 338 338 337 339 338 337 337 336 337 337 338 337 337 338 338 338 339 339 338 338 338 338 338 338 338 338 338 337 336 335 334 333 333 335 335 334 334 335 336 336 336 335 334 333 332 330 327
315 316 317 322 325 323 327 329 328 327 329 331 329 331 332 331 330 330 330 328 326 326 326 325 326 326 326 327 326 327 330 328 330 338 338 338 339 337 339 341 342 342 344 345 343 343 343 342 339 337 338 336 337 339 337 336 336 336 336 337 337 337 337 337 338 338 338 338 338 338 338 338 338 338 338 338 337 336 335 334 332 331 331 332 334 334 334 332 333 335 335 335 334 332 331 330 327
315 317 320 325 324 320 324 325 326 327 329 331 330 331 331 331 330 330 330 328 326 326 326 326 325 325 326 327 326 329 332 332 336 339 337 338 340 337 339 341 342 342 344 344 343 343 343 342 338 337 338 335 338 340 337 336 336 336 334 336 337 336 336 337 338 337 338 338 337 338 338 338 338 338 338 337 336 336 334 333 331 329 328 330 332 334 334 333 331 332 333 334 333 332 331 330 328
315 318 322 326 326 323 324 324 325 327 328 330 330 331 331 330 330 330 330 328 327 327 326 325 325 326 327 327 328 331 334 336 338 338 336 338 339 337 338 341 342 342 342 343 342 343 343 342 339 337 337 337 339 338 338 337 337 337 333 335 337 337 336 336 337 337 337 337 337 338 338 338 338 338 338 337 336 335 335 333 332 328 326 328 330 331 333 334 334 332 331 332 332 332 331 331 329
314 318 321 321 324 324 323 324 325 327 328 328 329 330 331 331 330 329 330 329 328 328 327 326 325 326 327 326 329 333 334 335 338 339 339 339 339 336 338 340 341 341 342 343 341 342 343 342 340 337 335 338 340 337 338 338 338 338 334 333 335 336 335 336 337 336 336 337 337 338 338 338 338 338 338 337 336 336 335 334 333 330 328 329 329 330 330 333 334 334 331 330 331 331 331 330 329
314 317 320 320 321 320 320 321 323 327 328 328 328 329 330 330 330 329 329 328 328 328 327 327 325 326 327 325 332 335 333 335 338 340 340 339 338 337 338 340 341 341 342 343 341 342 343 342 341 337 335 338 339 338 338 338 337 337 336 334 335 335 334 335 336 335 335 336 337 337 337 338 338 338 337 337 337 336 335 333 333 331 331 330 330 329 329 330 332 334 333 330 330 331 330 330 329
315 316 318 319 318 318 318 320 322 325 327 327 328 328 329 328 329 328 327 328 327 328 327 326 326 327 325 327 334 335 333 337 340 340 340 340 339 338 339 340 340 340 342 343 342 342 343 342 340 338 336 337 339 339 338 337 336 335 336 335 336 337 333 333 335 334 334 334 335 336 337 337 337 337 337 337 336 335 335 334 333 332 331 330 330 328 328 329 330 332 332 330 330 330 329 329 329
315 317 319 318 317 317 319 320 322 325 327 327 327 328 328 328 328 327 327 327 327 328 326 326 326 326 325 328 334 335 337 340 340 340 340 340 340 339 339 340 340 340 343 343 342 342 343 342 339 338 337 336 338 339 338 338 335 333 333 334 335 336 332 331 334 335 335 334 334 334 335 336 336 336 336 336 336 335 334 333 332 332 332 331 330 328 326 327 328 329 329 329 329 330 329 328 328
314 316 318 318 318 318 319 319 321 324 325 326 327 327 326 326 327 326 326 326 327 327 325 325 325 325 325 329 336 337 339 340 340 340 340 341 341 340 340 341 340 340 342 343 342 341 342 341 339 339 338 336 338 340 339 338 337 331 328 330 331 331 328 327 333 336 336 334 333 333 334 335 335 335 335 335 335 334 333 332 332 331 331 330 329 328 326 325 326 327 327 327 328 329 328 328 328
314 315 316 316 318 318 319 320 321 321 322 324 324 322 322 323 323 323 323 324 325 325 324 324 322 325 324 330 338 338 338 339 340 340 340 341 341 340 341 341 340 341 342 342 342 342 341 341 340 339 338 337 338 340 339 338 338 333 324 323 325 326 324 323 330 336 335 334 334 333 334 335 335 334 334 335 334 334 333 332 332 331 329 328 327 327 326 327 326 325 326 326 326 327 327 327 328
314 315 315 315 316 317 319 320 321 320 321 323 320 319 320 321 322 321 322 322 323 322 322 322 322 324 324 332 337 336 338 339 339 340 340 340 340 341 341 341 341 342 341 341 342 342 342 341 341 340 339 339 339 340 339 338 338 335 324 322 324 325 323 319 326 334 334 333 333 332 332 333 334 334 334 334 334 333 333 332 331 330 329 328 326 324 324 328 328 326 326 326 325 325 326 327 328
313 314 315 316 316 317 318 318 319 319 320 321 318 318 319 319 320 320 320 321 321 322 321 323 323 323 328 334 336 335 338 338 338 340 339 340 340 340 341 341 341 342 341 341 341 342 343 342 342 341 340 340 340 339 339 338 338 336 326 323 325 325 325 321 323 331 333 332 331 330 330 331 332 333 333 334 334 333 333 332 331 329 328 327 326 323 323 328 329 327 326 326 325 326 328 327 326
313 314 315 316 315 314 315 316 317 318 319 319 317 317 318 318 319 318 318 319 321 321 321 323 322 324 331 335 335 335 337 336 338 339 339 339 340 340 340 340 341 341 340 340 339 341 342 342 342 341 340 339 340 340 339 338 338 336 328 324 325 325 326 324 322 326 330 331 330 329 328 329 330 331 332 333 333 333 332 331 329 328 327 326 326 323 322 327 329 328 327 326 325 326 327 326 325
312 312 312 312 311 312 315 317 317 318 318 316 317 316 316 316 317 317 317 319 319 319 321 322 322 328 332 333 333 335 336 337 338 339 338 339 339 339 338 339 340 340 340 339 338 339 342 342 342 342 341 340 340 340 339 339 338 337 330 325 325 325 326 324 322 322 326 329 329 327 326 327 328 328 329 330 331 331 329 328 328 327 326 326 326 324 322 325 329 329 328 327 326 325 324 324 324
311 311 310 309 311 314 316 317 316 317 316 315 316 315 314 315 316 316 316 317 317 319 320 319 321 327 330 332 333 333 336 337 337 338 338 338 338 338 338 338 339 339 339 339 338 338 340 342 342 342 341 340 340 340 340 339 338 338 333 328 326 326 326 324 323 322 323 327 328 326 325 326 328 327 328 328 328 328 328 327 326 326 327 326 325 325 322 323 327 328 329 328 327 326 324 324 323
311 311 309 310 315 316 315 315 315 314 314 314 314 314 314 314 315 315 315 316 316 318 318 316 317 319 321 326 328 328 331 335 335 336 337 338 338 338 338 338 338 339 338 338 337 337 337 339 341 342 342 341 341 340 340 339 338 338 335 330 328 326 326 325 324 325 325 326 327 326 325 326 326 326 327 327 327 327 327 326 326 326 326 326 325 324 323 323 326 327 328 328 328 327 325 324 323
313 312 310 310 316 317 315 314 314 313 312 313 313 313 314 314 314 314 314 315 316 317 315 314 314 314 314 316 318 319 322 329 334 335 335 335 337 337 338 338 338 338 338 337 337 337 336 337 340 341 342 341 341 341 340 339 338 338 336 332 330 328 326 325 324 326 328 328 328 328 327 326 325 326 326 326 327 327 326 325 325 325 326 325 324 324 323 323 325 326 325 325 326 326 325 323 323
312 313 311 311 315 316 315 314 314 313 312 312 312 312 312 312 313 313 313 314 315 315 314 314 313 313 314 313 314 315 318 321 326 331 334 333 333 335 336 337 338 338 337 337 336 337 336 336 337 339 341 341 341 341 340 339 339 338 336 334 333 332 330 328 326 326 328 329 327 327 327 326 326 326 326 326 326 326 325 325 324 325 325 325 324 324 323 323 325 324 323 323 324 324 324 322 322
312 312 311 311 314 315 314 313 313 313 311 311 310 311 311 311 312 312 312 313 313 313 313 313 313 313 313 314 315 316 318 318 319 322 328 330 331 331 332 334 337 337 338 337 337 336 336 336 336 337 339 340 340 341 340 339 339 338 336 334 333 333 332 331 330 327 327 329 328 327 327 327 326 327 327 327 326 326 325 325 325 325 325 325 324 324 322 323 324 324 323 323 323 323 323 322 321
311 311 311 312 313 313 313 312 312 312 312 311 310 310 310 310 311 312 312 312 312 312 312 313 313 313 313 314 314 315 317 318 317 317 320 325 328 329 330 331 333 337 338 338 337 337 336 336 335 336 337 338 340 340 340 339 339 338 336 335 333 333 333 332 331 330 328 329 329 328 327 326 326 327 327 327 327 327 326 325 325 325 325 324 324 324 323 322 324 325 324 322 322 322 322 322 323
310 311 311 311 311 311 310 310 310 311 311 311 310 310 309 310 310 311 311 311 311 312 313 312 312 312 312 312 313 314 315 315 315 315 319 323 324 327 329 331 332 335 337 338 338 337 336 336 335 336 335 336 338 338 340 339 339 338 337 336 334 333 333 332 331 331 330 329 329 328 328 326 325 327 327 326 327 327 326 325 325 325 325 324 324 325 323 322 323 325 325 323 322 323 324 324 324
309 309 309 309 309 309 308 309 310 310 310 310 310 310 310 310 311 310 310 310 311 312 312 312 312 312 312 312 312 313 314 314 314 315 317 320 321 323 325 329 332 334 335 336 338 337 336 336 335 335 335 335 336 337 338 338 338 337 337 335 334 333 333 332 331 331 331 330 329 329 328 327 326 326 326 326 326 326 326 325 325 325 325 325 324 324 324 323 323 323 324 324 323 324 324 323 323
307 306 307 307 307 308 308 309 309 309 310 310 310 310 310 310 311 310 310 310 311 311 311 311 312 312 312 312 312 313 313 313 313 314 314 315 318 320 321 324 329 333 335 335 335 337 337 336 335 335 335 335 335 335 336 337 336 337 336 335 334 333 332 332 332 331 331 330 330 329 329 328 327 326 326 326 326 326 326 325 325 325 325 325 325 324 324 323 323 323 323 323 323 323 323 322 322
305 305 305 306 307 307 308 309 309 309 309 310 310 309 309 308 309 309 309 311 311 310 310 311 312 312 312 312 312 313 312 312 312 312 312 312 313 315 317 318 320 325 332 335 335 336 336 336 335 335 335 335 334 334 334 335 335 336 336 335 334 333 332 332 331 331 330 330 329 329 329 329 328 327 326 326 326 325 326 325 325 325 325 325 325 325 324 324 323 323 323 323 323 323 323 322 322
306 306 306 306 306 307 309 309 309 308 308 308 308 309 308 307 308 310 310 311 311 311 311 311 311 312 312 312 312 312 311 311 311 311 310 311 312 312 313 314 315 317 323 330 334 335 336 336 335 335 334 334 334 334 334 334 334 335 335 334 334 333 332 332 331 330 330 330 329 329 329 329 329 328 327 326 326 326 325 325 325 325 325 325 325 325 324 324 324 324 323 323 323 323 323 323 323
307 306 306 305 306 308 310 308 307 308 307 306 307 309 310 309 310 311 311 311 311 311 311 311 311 311 311 311 311 310 310 310 310 310 310 310 311 311 312 313 314 314 317 323 329 334 335 335 335 334 334 334 334 334 333 334 334 334 334 334 333 333 332 331 331 331 331 330 329 329 328 329 329 329 328 327 327 326 326 325 325 325 325 325 325 325 325 324 324 324 324 323 323 324 324 323 323
306 306 306 306 307 307 307 307 306 306 306 305 306 309 310 311 311 310 311 311 310 310 310 310 310 310 310 311 311 309 309 309 309 309 309 309 309 310 311 312 312 313 315 318 322 328 334 335 334 334 334 333 333 333 334 334 333 333 334 333 333 333 332 331 331 330 330 330 329 329 328 328 328 329 328 327 327 327 326 326 325 325 325 325 325 325 325 324 324 324 324 324 324 324 324 323 323
305 306 307 307 307 306 305 306 306 305 306 306 306 308 309 309 309 308 310 310 308 309 309 309 309 309 310 310 309 309 308 308 307 307 307 308 308 309 309 309 310 311 312 313 314 319 327 333 334 334 334 333 333 333 333 333 333 333 333 333 332 332 332 331 330 330 330 329 329 329 328 327 327 328 328 327 326 327 327 326 325 325 325 325 325 325 324 324 324 324 324 324 324 323 323 323 322
305 306 307 306 306 305 305 305 305 305 306 306 307 307 306 306 306 307 308 308 307 307 307 307 308 308 309 308 308 307 307 306 305 305 306 306 307 307 308 308 308 309 309 309 310 312 317 323 329 333 334 333 333 332 333 333 333 333 333 333 332 331 331 331 330 330 329 328 328 328 328 327 327 327 327 327 327 327 327 327 326 326 325 325 325 324 324 324 324 324 324 323 323 323 323 322 321
305 306 306 306 306 306 305 305 306 306 306 306 307 307 306 307 306 306 307 306 306 306 306 306 306 306 306 306 306 305 305 305 304 304 304 305 305 306 306 306 307 307 307 307 308 310 311 314 319 325 331 334 334 333 332 333 333 333 333 333 333 331 330 330 330 329 329 328 328 327 327 328 328 328 327 327 327 326 326 327 326 326 325 325 325 324 324 323 323 323 323 323 322 323 322 322 321
305 306 306 305 306 306 305 305 305 306 306 306 307 308 307 306 307 307 307 306 305 304 304 304 304 304 304 303 304 304 304 304 303 303 304 304 304 304 305 305 305 305 305 306 306 308 309 310 312 315 321 327 332 334 332 332 332 332 333 332 332 332 331 330 330 329 328 328 328 328 327 327 328 328 328 327 326 326 326 326 326 326 325 325 324 324 323 323 323 323 323 322 322 322 322 322 322
304 305 305 305 306 306 305 305 305 305 306 306 307 307 307 307 308 307 305 303 302 302 302 302 302 302 302 302 302 302 303 303 303 303 303 303 303 304 304 304 304 304 304 304 305 306 307 308 309 311 313 316 322 328 332 333 332 332 332 332 332 332 331 330 329 329 328 328 328 328 327 327 328 328 328 327 327 326 326 326 326 326 325 325 325 324 324 323 323 323 323 322 322 322 322 322 322
303 303 303 305 305 305 304 304 305 305 306 306 307 307 307 308 307 304 301 301 301 301 301 301 301 301 301 301 301 301 302 302 302 302 302 302 303 302 303 303 303 303 303 304 304 305 305 306 307 308 310 311 313 317 323 329 333 333 332 331 332 331 331 330 329 329 328 328 327 328 328 327 327 327 328 328 327 327 326 326 325 325 326 325 325 325 324 323 323 323 322 322 322 322 322 322 322
303 301 302 304 304 304 304 305 305 305 307 307 307 308 308 305 302 301 301 301 300 300 300 301 300 301 301 301 301 301 302 302 301 301 302 302 302 302 302 303 303 303 303 303 304 304 304 305 305 306 308 310 311 311 313 318 325 330 332 332 331 331 331 330 330 330 328 328 328 328 327 327 327 327 327 328 328 328 327 326 325 325 325 325 325 325 324 324 323 323 323 323 322 322 322 322 322
303 301 302 303 304 304 305 305 305 306 307 307 308 308 305 302 301 301 301 300 300 300 300 300 300 300 301 301 301 301 301 301 301 301 301 301 302 302 302 302 302 302 303 303 303 303 303 304 304 305 306 308 310 311 311 312 314 319 327 331 331 331 331 330 330 330 330 329 328 328 328 328 328 327 327 327 328 328 327 327 325 325 325 325 325 325 325 324 324 323 323 323 323 322 322 322 322
303 302 303 304 304 305 306 305 305 306 307 307 308 307 304 303 303 301 301 300 300 300 300 300 300 300 301 301 301 301 301 301 301 301 301 301 301 302 302 302 302 302 302 302 302 303 303 303 303 304 305 306 307 309 309 310 311 312 319 327 331 331 330 331 331 331 330 330 329 329 328 328 329 328 328 327 328 328 328 327 326 325 325 325 325 325 325 325 324 324 323 323 323 322 322 321 322
304 303 303 304 305 306 306 306 306 306 307 306 308 309 306 304 304 302 301 300 299 299 299 299 300 300 300 301 300 301 301 300 301 301 301 301 301 301 301 302 302 302 302 302 302 302 302 303 303 303 304 304 306 306 306 308 310 312 314 318 325 331 331 331 331 331 331 331 330 330 329 329 329 329 329 328 328 328 328 328 327 326 325 325 325 325 325 325 324 324 324 323 323 322 322 321 321
304 303 303 304 304 305 306 307 308 308 309 307 307 311 309 305 303 302 301 300 299 299 298 298 299 299 299 299 299 300 300 300 300 300 300 301 301 301 301 301 301 301 301 301 301 301 302 302 302 303 303 304 304 305 305 306 307 310 312 313 317 324 330 331 331 330 331 331 331 330 330 329 329 329 329 329 329 328 327 327 327 327 326 325 325 325 325 324 324 324 324 324 323 322 322 321 321
304 303 303 303 304 306 307 308 309 310 310 308 305 309 311 308 304 303 301 300 299 298 298 297 298 299 299 299 299 299 299 299 300 300 300 300 301 301 301 301 300 300 300 300 301 301 301 302 302 302 302 303 303 304 304 305 306 307 310 312 313 316 321 327 330 330 331 331 331 331 330 330 329 329 329 329 329 328 328 327 326 326 327 326 326 325 325 324 324 324 324 324 323 323 322 322 322
304 303 303 303 304 307 308 309 309 309 310 308 303 304 310 312 308 304 302 301 298 297 297 297 298 298 299 299 299 299 299 299 299 300 300 299 300 300 300 300 300 299 299 299 299 299 300 301 301 301 301 302 302 303 303 304 305 305 307 311 313 313 315 319 324 328 330 330 331 331 331 331 330 330 329 329 329 329 328 328 327 326 327 327 327 326 325 325 324 324 323 323 323 323 322 322 322
303 302 303 303 305 307 309 309 309 310 310 305 301 302 308 313 310 305 303 301 298 297 296 297 298 298 299 299 299 299 299 299 299 299 299 299 299 299 299 299 299 298 298 298 298 298 298 299 299 299 300 300 301 301 302 302 303 304 306 308 310 312 313 314 316 320 326 329 329 330 330 331 331 330 330 329 329 329 329 328 327 327 326 326 326 326 326 325 324 324 323 323 323 323 323 322 322
302 302 303 304 307 309 310 310 310 311 309 303 300 301 305 309 308 305 304 300 297 297 297 297 298 298 299 299 299 299 299 299 299 299 299 299 299 298 298 298 298 297 297 297 297 297 297 297 297 298 298 298 299 299 300 301 302 303 305 306 307 309 311 312 313 314 319 325 328 329 329 330 331 330 330 330 330 329 329 328 328 327 327 326 326 326 326 325 325 324 324 323 323 323 323 323 322
302 303 303 305 309 310 309 310 311 308 305 302 300 300 303 307 307 305 303 300 297 296 296 297 298 298 299 299 299 299 299 299 299 299 298 298 298 298 297 297 297 296 296 296 296 296 296 296 296 296 296 296 297 297 298 299 301 302 303 303 305 306 308 310 312 313 314 318 323 328 329 329 330 330 330 330 330 330 329 329 328 328 327 326 326 326 326 326 325 325 324 324 324 324 323 323 323
302 303 303 304 306 307 306 307 308 304 303 302 299 301 304 308 309 305 301 299 297 296 295 296 297 297 298 299 299 299 299 299 299 299 298 298 298 297 297 296 296 296 295 296 295 295 295 296 295 295 295 295 295 296 297 297 298 300 301 301 302 304 305 307 309 311 312 313 316 322 327 328 329 329 330 330 330 330 330 329 328 328 327 326 326 325 325 326 326 325 325 325 325 324 324 323 323
301 301 302 304 304 302 302 303 303 301 302 302 299 301 306 308 308 304 301 299 297 296 296 297 297 297 298 299 299 299 299 299 299 299 298 297 297 296 296 296 296 296 295 295 295 295 295 295 295 295 295 294 294 294 295 296 296 298 299 300 301 302 303 305 306 308 311 312 313 315 320 325 328 329 329 330 330 330 330 329 329 328 327 327 326 326 325 325 325 326 326 325 325 325 324 324 324
301 301 302 303 303 302 302 301 301 302 303 301 299 302 306 306 306 304 301 299 297 296 297 298 298 298 298 299 299 299 299 299 299 299 298 297 296 296 296 296 295 295 295 294 294 294 294 295 295 295 294 294 293 294 294 294 295 296 297 298 299 300 301 302 304 306 308 311 312 313 314 318 323 327 328 329 330 330 329 329 329 329 328 328 327 326 326 325 324 325 326 326 326 326 326 325 325
301 301 301 303 303 301 301 300 300 303 303 300 300 303 303 303 305 304 301 299 298 297 297 298 298 298 299 299 299 299 298 297 299 299 298 296 296 296 296 295 295 294 294 294 294 294 294 294 294 294 294 294 293 293 293 294 294 294 295 296 297 298 299 301 302 304 305 308 311 313 313 314 316 321 325 328 329 329 329 329 329 329 328 328 327 327 326 325 325 325 325 325 326 326 326 326 326
301 301 302 303 302 301 301 301 301 302 302 302 303 302 301 302 304 303 300 300 298 297 297 297 297 298 299 299 299 298 297 297 298 299 298 296 296 296 295 295 294 294 294 293 293 293 293 293 293 293 293 294 294 293 293 293 293 293 294 294 295 296 297 299 301 302 303 305 308 311 313 314 314 316 320 324 327 328 329 328 328 328 328 328 328 327 327 326 326 325 325 325 325 326 326 327 327
301 302 301 301 301 301 301 301 300 300 301 303 302 300 301 301 302 302 300 299 298 297 297 296 296 297 298 299 299 298 297 297 297 298 298 297 296 296 295 294 294 293 293 293 293 292 292 292 292 292 292 293 293 293 292 292 293 293 293 293 293 294 296 298 300 301 302 304 306 309 311 312 314 315 317 320 324 326 328 328 328 328 328 329 328 328 327 327 326 326 326 326 326 326 326 326 327
300 301 300 299 302 302 300 299 299 299 300 301 300 299 299 298 300 302 301 299 298 297 297 296 296 297 297 298 298 297 296 296 296 296 296 296 296 296 295 294 293 293 293 293 292 292 292 292 291 291 292 292 293 292 292 292 292 292 292 292 293 293 295 296 298 300 301 302 303 306 308 311 313 314 315 317 321 324 326 327 328 327 326 327 327 328 328 328 327 327 326 326 326 326 326 327 326
301 301 299 299 300 300 299 298 299 299 299 300 301 299 298 298 299 301 300 297 297 297 297 296 296 296 296 297 297 296 296 296 296 295 295 296 296 295 294 293 293 293 293 292 292 292 292 291 291 291 291 292 292 292 292 292 292 292 292 292 292 293 294 295 296 297 299 300 301 303 305 308 311 313 314 315 317 320 323 326 328 327 325 325 326 326 328 328 327 327 327 327 327 327 327 327 327
301 302 300 298 298 298 298 297 298 299 299 300 300 299 299 299 298 297 297 297 296 296 296 296 295 295 296 296 297 296 296 295 295 295 294 294 295 295 294 293 292 292 292 292 291 291 291 291 291 291 291 291 291 291 291 291 292 292 291 291 292 293 293 294 294 295 297 299 299 300 302 304 307 310 312 314 315 316 318 321 325 327 327 327 327 326 326 328 328 328 327 327 327 327 327 327 327
300 300 299 297 297 297 298 298 298 299 299 299 299 299 299 298 297 297 297 297 297 296 295 295 295 295 295 296 297 296 295 295 294 294 293 293 294 295 293 292 292 292 291 291 291 291 291 291 291 290 290 291 291 291 291 291 291 291 291 291 291 292 293 293 293 294 296 297 298 298 299 302 304 306 309 311 314 314 315 316 319 324 327 328 328 327 327 327 328 328 328 328 327 327 327 327 327
299 299 298 296 296 297 297 298 298 297 297 298 298 297 297 296 297 297 297 297 296 296 295 294 294 294 295 296 296 296 295 295 294 293 292 292 293 294 293 292 292 291 291 291 291 291 290 290 290 290 290 290 290 290 290 291 291 291 291 291 291 291 292 293 293 294 295 296 296 297 298 300 302 304 306 308 310 312 314 315 316 318 322 326 329 328 328 328 327 326 327 328 328 328 328 327 327
Wind_Speed
18 15 11 10 9 8 6 4 2 1 2 4 4 6 3 3 2 1 3 2 4 3 5 3 3 1 2 3 3 5 5 3 4 3 1 3 10 16 15 8 17 23 21 23 22 28 27 25 26 23 21 21 20 19 18 17 16 16 14 14 14 12 12 12 12 12 11 11 11 12 12 11 12 10 12 14 14 14 12 10 11 11 12 13 13 14 13 13 11 11 13 14 14 12 10 10 10
18 16 11 9 8 5 3 3 2 2 3 4 5 6 1 4 1 1 2 7 5 3 4 4 3 2 2 3 4 4 4 2 7 5 2 9 12 11 13 11 20 23 21 21 23 29 27 25 25 23 22 21 21 19 19 18 16 16 15 14 13 13 12 12 12 11 11 10 9 12 12 11 11 10 12 15 14 13 11 10 10 10 10 11 11 12 12 11 10 12 14 13 13 12 11 10 9
17 16 12 10 6 4 3 2 3 3 4 4 4 6 3 3 2 4 9 10 6 4 4 3 2 2 2 2 3 3 2 5 8 7 4 11 9 9 14 13 19 22 22 21 23 28 27 26 25 23 21 21 21 20 19 18 17 16 15 14 13 13 12 13 12 11 11 10 9 11 11 10 11 11 13 14 14 12 11 12 11 10 9 9 9 9 10 9 10 13 13 12 12 11 10 8 6
18 15 11 9 3 3 2 2 3 4 4 4 4 3 2 2 3 7 11 7 5 5 4 3 1 0 2 3 3 3 2 6 8 9 5 6 8 14 17 15 20 21 22 21 22 26 26 27 25 22 22 21 21 20 19 18 18 17 16 15 14 14 13 13 12 12 11 11 11 11 10 10 11 12 13 14 14 12 12 13 11 10 9 9 9 9 8 9 11 13 12 11 11 9 9 7 5
18 14 10 6 2 1 2 2 3 5 5 5 4 1 2 3 4 6 9 7 5 5 3 3 1 0 1 3 2 2 2 4 9 12 7 6 11 18 18 18 21 21 22 20 22 25 24 26 25 23 22 21 21 20 19 18 18 17 16 15 14 14 13 13 12 12 11 11 11 11 11 10 11 13 13 13 13 13 12 13 12 11 9 8 9 8 8 8 10 11 10 10 9 8 8 6 5
16 12 7 5 3 1 2 3 4 5 6 6 5 4 2 2 1 6 6 7 6 4 2 1 1 2 2 2 1 2 4 2 5 9 8 10 14 17 19 20 21 20 21 20 21 24 24 24 25 25 23 21 20 19 18 18 18 17 16 15 14 13 14 13 12 12 12 12 11 11 11 10 11 13 14 14 13 13 13 14 13 12 10 9 8 7 7 6 8 10 9 9 8 8 8 6 5
12 8 3 4 2 1 2 4 5 5 6 7 7 8 6 4 4 4 2 4 3 4 2 0 2 3 3 1 1 5 11 6 5 6 10 15 15 17 20 20 19 20 20 20 20 22 24 23 25 26 23 21 20 18 17 17 16 16 17 16 14 13 14 14 12 12 12 12 12 11 12 11 12 13 14 16 16 15 14 14 13 12 12 10 8 7 6 7 6 8 9 9 9 8 8 6 5
10 4 1 2 2 2 3 5 7 6 6 9 9 9 11 4 5 2 1 1 0 2 3 3 3 2 2 2 1 5 14 12 11 12 14 17 17 17 19 19 19 20 19 19 20 21 22 22 24 25 24 22 20 18 17 16 14 15 15 16 15 13 13 14 13 13 12 11 12 11 12 12 13 13 14 17 18 15 14 13 12 12 12 9 8 7 5 7 8 7 8 8 9 8 8 7 5
8 4 1 2 2 3 4 5 6 7 8 10 11 11 11 1 4 3 2 1 2 2 3 6 5 1 4 4 2 5 10 12 14 14 14 16 16 16 18 18 20 20 18 18 19 21 21 22 23 23 24 23 21 19 17 16 15 14 13 14 15 13 13 13 13 13 11 11 11 11 12 12 13 13 14 16 17 14 13 13 12 11 11 9 8 8 7 7 9 9 8 8 8 9 8 7 5
4 4 2 2 3 5 5 6 6 7 9 9 11 13 13 6 3 4 1 3 3 3 1 8 3 2 4 4 3 3 5 10 14 13 12 13 13 15 16 16 19 21 18 17 19 21 22 22 22 22 25 25 22 20 20 18 17 16 14 15 14 13 13 13 13 13 11 11 11 11 12 13 13 13 14 16 15 14 14 14 13 11 10 10 8 8 9 8 9 9 9 8 9 10 9 7 6
2 4 1 2 4 5 5 5 6 7 9 8 10 11 13 10 4 1 1 4 3 4 1 6 2 2 3 1 2 2 7 10 13 13 11 11 11 12 14 15 18 20 18 16 18 21 22 22 22 22 24 25 23 21 21 19 18 18 17 17 17 15 15 15 14 12 11 10 11 11 11 12 12 13 14 15 15 15 14 12 11 11 10 9 7 8 10 11 11 10 9 8 9 10 10 8 7
2 3 2 3 4 5 5 6 6 7 8 8 9 8 10 11 4 1 3 5 4 5 2 4 2 1 2 2 3 4 11 11 12 12 11 10 9 11 12 14 17 19 18 15 17 19 21 23 23 23 24 25 24 22 21 18 16 18 18 17 18 17 15 16 15 13 11 11 11 11 11 11 12 13 14 14 14 15 13 12 11 11 10 9 8 7 9 11 12 12 9 8 9 10 10 9 8
3 3 2 4 4 5 6 6 6 6 7 6 8 6 6 6 2 0 3 6 6 4 2 1 3 4 2 2 4 5 11 10 11 10 9 9 9 10 10 13 16 18 18 16 16 17 20 23 24 24 24 24 24 24 21 18 16 17 17 16 17 17 15 16 17 15 13 13 13 12 12 12 12 13 14 15 15 15 13 13 12 12 12 11 9 7 8 10 12 13 11 8 9 10 10 10 9
2 3 3 4 3 5 5 5 6 6 5 5 6 7 5 4 4 3 4 5 4 2 3 5 6 4 2 2 4 3 6 8 9 8 9 9 9 9 9 12 15 17 18 16 15 16 19 22 24 25 25 25 25 25 22 19 17 17 17 16 17 17 16 15 17 18 15 15 14 13 12 12 13 12 13 15 15 15 14 14 13 13 12 11 10 8 9 11 12 13 11 8 9 11 11 10 10
2 3 2 3 3 4 4 4 5 5 4 3 7 11 5 4 5 3 5 5 2 4 3 5 5 2 4 4 3 3 6 7 7 8 9 9 8 8 9 12 13 16 17 15 15 15 17 19 22 25 27 27 26 25 23 21 19 18 17 17 17 17 15 15 17 20 18 16 15 14 13 13 14 13 12 14 15 15 15 14 14 14 13 12 10 9 10 13 13 12 12 10 10 11 11 11 11
1 2 2 3 3 4 4 4 5 5 3 5 10 13 6 4 7 3 5 6 4 5 2 4 4 2 6 6 5 6 7 6 6 8 9 9 9 8 9 10 11 15 16 14 15 15 17 19 21 24 27 28 26 26 25 23 20 18 18 18 17 16 15 14 16 20 19 17 17 16 14 13 14 14 14 14 15 16 16 15 14 14 12 12 11 9 10 13 14 13 13 12 11 11 12 12 12
0 1 2 2 3 4 3 3 3 3 4 10 11 13 9 7 9 7 7 6 3 6 4 3 3 4 7 8 8 9 7 5 7 8 8 8 8 8 7 8 9 13 15 14 14 15 17 19 20 22 25 27 26 25 24 24 22 19 19 19 18 17 16 15 15 18 20 19 18 17 16 15 14 15 15 15 16 16 16 15 14 13 12 12 12 11 11 13 15 15 14 14 13 14 14 13 13
1 1 3 3 3 2 3 4 5 4 6 10 10 11 11 10 10 9 9 4 2 5 3 1 1 8 11 11 10 8 7 5 6 5 6 6 6 8 7 7 9 11 13 13 13 15 17 19 21 20 22 25 24 23 23 22 22 20 21 21 20 19 17 17 16 17 20 20 19 18 17 16 16 15 15 16 16 16 16 15 14 14 14 14 13 12 12 12 14 15 16 15 14 16 16 15 14
2 2 3 3 2 2 6 7 7 7 7 8 9 10 9 10 10 7 8 8 9 6 2 5 5 10 11 11 10 7 5 5 3 2 4 4 4 6 8 8 8 10 12 13 13 14 16 18 20 20 20 23 23 23 22 21 20 20 22 23 22 21 19 19 17 17 19 20 20 19 18 18 17 16 16 16 16 17 18 17 17 16 17 17 15 14 13 13 12 14 16 16 16 16 15 14 14
3 2 4 2 2 4 8 10 9 9 9 8 9 9 8 10 9 6 7 9 9 5 8 11 10 10 8 6 9 7 5 3 1 1 2 3 5 5 6 9 10 11 11 13 13 13 15 17 19 20 20 21 23 24 22 21 20 19 21 23 23 23 22 20 19 18 19 19 19 18 18 17 18 18 18 18 18 19 19 18 17 17 18 18 17 15 15 14 13 13 13 14 16 15 13 12 12
2 1 5 1 5 4 8 11 10 10 9 8 8 8 8 9 7 6 9 8 6 4 9 12 11 11 11 9 7 7 5 2 0 1 3 4 5 6 6 7 10 11 11 12 13 14 16 17 19 21 20 20 23 24 22 21 20 19 21 23 21 22 22 21 21 20 20 19 18 18 17 16 16 17 19 19 19 19 19 17 16 17 18 19 18 16 16 16 15 14 12 13 14 14 13 11 12
4 3 7 4 6 5 8 10 9 10 9 9 8 7 7 7 5 6 8 5 5 7 10 12 12 11 10 10 9 7 6 5 3 2 4 5 6 6 6 7 7 10 11 12 13 15 16 17 18 21 21 22 23 24 22 21 21 19 20 22 21 20 20 21 21 21 21 19 18 18 17 16 16 16 18 19 19 19 19 17 17 18 19 20 19 17 18 18 16 17 16 15 15 15 14 13 14
3 3 8 5 7 6 9 9 8 9 10 10 9 8 7 7 6 6 6 5 7 11 12 12 11 11 11 9 8 7 7 7 6 6 4 4 5 6 6 7 6 8 11 12 13 14 17 18 19 20 22 23 23 23 22 21 22 21 19 21 22 22 20 20 21 21 21 21 20 20 20 18 17 18 18 19 20 21 20 17 16 18 19 20 20 19 19 19 18 18 19 19 18 18 18 17 16
4 3 7 9 9 8 9 9 8 7 8 10 8 9 9 9 8 6 7 8 9 11 10 9 9 11 12 9 8 8 9 9 11 14 15 12 8 6 7 8 7 6 10 11 12 13 16 18 19 20 21 23 24 23 22 21 23 22 20 22 23 23 22 22 22 21 20 22 22 21 21 21 19 19 20 19 18 18 19 18 17 18 19 19 20 20 19 19 20 19 18 18 19 19 19 19 19
5 6 9 10 9 9 9 8 8 6 6 7 7 9 8 8 7 7 8 8 8 7 6 8 9 10 9 8 9 9 9 10 12 15 16 18 17 12 8 8 8 7 7 10 12 13 14 17 18 19 20 21 23 24 23 22 23 23 22 22 23 23 23 23 22 21 21 21 23 22 22 22 21 20 20 20 18 17 18 18 19 19 19 18 18 21 19 18 20 20 19 18 19 19 18 18 19
8 9 10 10 10 10 8 7 7 6 5 5 6 7 6 7 6 6 7 4 7 6 6 6 8 9 8 8 9 9 8 9 11 13 14 16 17 16 14 10 7 7 8 8 10 13 12 14 18 19 20 20 21 23 25 24 22 23 24 23 23 23 23 23 21 22 22 22 23 23 23 24 23 21 21 21 20 19 19 19 20 19 19 18 18 20 20 19 19 20 21 19 19 19 19 18 19
8 9 8 9 10 8 7 7 6 5 4 4 5 6 7 6 4 5 3 6 7 5 6 6 7 7 8 8 7 7 7 9 12 13 15 17 17 17 19 16 11 7 8 9 9 12 12 12 15 18 19 19 20 21 24 24 23 23 24 23 23 23 23 23 22 21 22 23 23 23 23 24 24 23 22 21 22 21 21 21 21 20 19 19 19 20 21 20 20 20 21 20 19 19 19 19 18
7 7 7 8 8 7 6 3 4 5 4 7 7 7 9 8 5 5 2 7 6 5 5 5 6 6 6 7 6 6 5 9 15 17 17 18 19 20 22 23 22 17 9 9 10 10 12 13 14 16 19 19 20 21 22 24 24 23 23 24 23 22 23 24 24 23 22 23 24 24 24 25 25 25 23 22 22 23 22 22 22 22 21 20 20 20 21 21 20 21 21 20 20 19 19 20 19
7 6 5 7 6 2 3 5 7 6 5 9 8 7 9 7 2 3 5 6 6 6 6 5 6 5 5 6 5 5 7 13 19 20 20 21 23 24 24 26 27 27 21 12 9 9 10 12 13 15 16 18 20 21 20 22 24 24 23 24 24 23 22 24 26 26 24 23 24 25 25 25 26 27 26 24 23 24 24 24 24 24 23 22 21 21 21 21 21 21 21 20 20 20 20 20 20
8 5 1 5 3 4 7 8 8 6 7 12 8 4 3 5 9 8 6 6 7 6 6 6 5 4 4 3 3 5 11 17 18 20 23 24 24 24 24 26 26 26 26 23 16 10 9 10 12 15 15 17 19 20 20 20 22 23 23 23 24 25 24 24 26 27 27 25 25 25 26 26 26 27 28 27 25 25 25 25 25 25 24 23 22 22 22 22 22 22 21 21 21 21 21 20 20
8 7 2 3 3 5 7 7 8 8 8 13 9 2 2 8 9 7 6 7 7 6 6 6 5 5 4 3 6 9 13 17 19 24 26 24 24 24 24 26 28 27 26 26 24 18 11 10 11 14 16 16 18 20 20 21 21 22 23 23 23 25 26 25 25 26 27 27 26 26 26 27 28 28 28 28 27 26 26 26 27 26 26 25 23 23 22 23 23 22 22 22 22 22 23 22 21
9 7 4 6 5 5 7 6 11 9 7 11 8 3 2 3 7 8 7 7 8 6 6 6 6 8 9 9 11 11 12 17 22 25 25 25 25 25 25 27 28 28 28 28 28 25 17 12 12 12 15 16 17 18 20 21 20 20 22 24 24 24 25 26 25 26 27 28 29 27 26 27 29 30 29 28 29 28 28 28 28 27 26 25 25 25 24 23 23 24 23 23 23 23 24 25 24
7 6 5 7 7 5 6 6 10 11 8 8 6 4 5 6 8 10 8 7 7 6 6 8 10 12 12 11 11 10 10 13 17 22 26 26 26 26 25 27 29 28 29 31 30 29 26 19 15 12 13 15 15 16 19 21 21 20 20 22 25 25 25 26 26 25 25 27 28 29 28 27 29 31 31 30 31 30 29 29 29 27 26 26 26 26 26 25 24 25 25 25 25 24 25 26 25
5 5 5 6 9 6 6 8 9 12 9 7 6 4 6 8 9 9 8 6 6 6 7 11 13 13 12 11 11 11 11 11 13 19 25 26 27 27 27 28 29 28 29 32 32 31 30 28 24 18 13 13 15 15 17 21 23 23 21 20 22 25 27 27 27 27 26 26 26 27 28 27 28 30 32 31 32 32 31 29 28 27 27 27 27 27 27 27 26 26 27 26 26 26 25 25 25
6 5 5 5 7 7 8 9 8 12 11 8 6 4 6 10 10 9 9 9 10 11 12 14 14 13 12 12 11 11 12 12 13 20 25 26 27 27 28 29 29 29 30 32 34 33 32 32 30 26 21 16 14 15 16 18 21 24 25 23 21 23 26 27 28 28 28 27 27 27 27 27 27 29 31 32 32 32 32 30 28 28 28 28 29 29 28 28 28 28 27 27 27 27 26 24 23
9 8 7 6 6 6 8 8 8 10 9 7 6 5 5 7 7 8 12 15 17 17 15 13 13 13 12 12 11 12 12 11 15 22 26 26 28 28 28 29 29 30 31 32 34 34 34 34 33 31 29 26 20 14 15 16 18 21 24 25 25 24 25 26 28 29 30 29 28 27 28 29 28 28 30 32 33 33 32 31 29 28 29 29 30 32 32 31 30 30 29 28 26 26 26 25 22
9 8 7 7 6 6 9 8 9 10 6 6 7 7 6 5 7 12 16 18 17 16 16 14 13 12 12 12 12 12 11 11 17 23 26 27 29 30 29 30 30 31 32 34 34 33 33 33 34 34 33 31 28 24 18 15 17 21 22 23 24 25 24 24 25 26 27 29 28 28 28 29 30 30 29 31 34 34 33 32 32 31 30 31 32 34 33 32 31 31 30 28 27 26 26 26 25
8 7 6 6 6 7 9 7 9 10 5 5 5 6 8 10 15 16 17 17 15 15 15 14 14 12 10 11 12 11 9 11 16 20 25 28 29 31 31 31 31 31 32 34 33 32 32 33 33 34 35 33 32 31 29 23 17 17 22 24 23 24 24 24 25 26 25 27 28 28 29 29 30 31 30 31 33 35 34 33 34 34 33 33 33 33 32 31 31 31 30 28 28 28 26 25 26
7 6 5 5 7 7 7 7 11 10 4 3 4 3 9 15 16 16 16 14 12 13 14 12 12 11 10 11 11 11 11 11 13 16 22 27 29 30 31 31 31 30 31 33 33 33 32 33 34 33 34 34 33 33 33 31 28 23 19 22 23 22 23 24 25 26 27 27 28 28 29 29 30 31 32 32 32 34 35 35 34 35 35 34 34 32 32 32 31 31 32 30 27 27 26 25 27
6 6 6 5 8 7 5 8 12 11 6 6 7 5 9 11 11 13 13 11 11 11 12 10 10 10 10 10 10 11 12 13 13 14 18 24 27 29 30 31 31 31 32 34 34 33 32 33 33 33 33 33 33 34 35 35 33 30 24 19 21 22 21 22 24 25 26 28 30 30 30 30 29 30 32 33 33 33 34 35 34 34 34 34 34 33 33 33 34 33 32 32 28 25 26 27 29
5 7 7 6 9 8 5 8 12 9 5 6 9 7 6 7 8 9 7 8 10 9 10 10 9 9 9 10 11 12 12 12 13 13 15 21 25 27 29 30 31 32 33 34 34 33 32 33 33 33 32 32 32 34 36 37 35 31 29 26 20 21 22 22 22 22 23 25 29 31 31 32 31 30 30 31 33 34 35 35 35 34 34 33 34 35 35 34 35 34 33 34 32 28 26 26 27
4 7 8 8 10 10 7 8 9 5 2 5 6 4 1 3 6 6 5 6 9 8 10 11 9 9 9 9 10 11 11 11 12 13 16 19 24 27 29 31 32 32 33 34 34 33 33 33 33 33 32 31 32 33 35 36 35 32 30 28 23 19 19 21 21 23 24 25 27 30 31 31 32 33 32 31 31 32 34 35 35 35 34 34 34 35 35 34 35 36 36 36 36 34 28 22 24
4 6 9 9 10 10 8 8 7 3 3 5 5 3 1 0 4 4 4 6 7 7 9 9 9 9 9 9 9 10 11 11 11 13 16 19 23 26 28 30 32 32 33 34 34 36 36 34 33 34 33 32 32 33 34 34 34 33 31 28 25 23 21 20 22 24 26 27 28 29 31 32 32 33 34 35 34 33 33 34 34 34 34 34 35 35 35 36 36 37 38 37 37 36 31 24 24
4 8 12 11 10 8 6 6 6 3 3 4 5 5 0 1 2 2 4 6 7 7 9 9 8 9 9 9 9 10 10 11 11 11 14 18 23 25 26 29 31 32 34 35 35 37 37 36 35 35 34 33 34 34 33 32 32 32 32 30 28 27 25 26 26 24 24 26 27 28 29 30 32 33 35 36 37 37 36 35 34 34 34 34 34 36 37 37 37 36 36 37 37 36 35 33 27
5 11 14 12 9 6 4 4 5 3 4 3 7 7 2 0 1 1 2 4 6 7 8 9 9 9 9 9 9 10 10 10 10 11 13 18 22 25 26 27 29 31 33 34 35 36 36 36 37 38 37 36 36 36 34 33 32 31 29 29 30 30 29 29 29 28 27 26 26 27 27 27 28 31 34 36 38 38 38 38 37 36 36 36 35 35 36 37 36 36 36 37 38 37 37 37 32
9 14 13 10 7 5 4 4 4 3 3 3 7 7 2 1 1 2 3 3 5 6 6 7 7 7 8 8 8 10 9 9 9 11 14 18 21 24 25 26 27 30 32 33 34 36 36 37 38 39 40 39 38 38 36 34 33 31 29 29 30 30 31 31 29 29 28 27 27 27 27 27 27 28 30 33 36 38 39 39 39 39 39 39 37 35 34 35 37 37 37 38 38 37 36 36 36
12 13 10 6 4 4 3 4 4 1 2 3 7 8 4 1 1 2 1 1 3 4 4 5 7 7 7 7 7 9 8 8 8 9 13 16 19 22 24 25 27 29 31 33 35 37 37 37 38 39 40 41 41 40 39 37 34 31 30 31 30 29 30 31 29 28 28 28 28 28 28 28 28 29 29 30 33 37 38 39 40 41 41 41 41 39 36 34 35 37 37 36 37 38 36 35 36
10 8 6 4 1 1 1 2 2 1 1 3 8 9 4 1 2 2 1 2 4 3 5 6 7 7 7 6 7 7 7 7 8 8 10 14 16 20 23 24 26 29 32 34 35 37 37 37 38 38 39 41 42 42 41 39 37 34 32 32 31 31 30 29 29 29 28 28 28 28 28 28 28 29 30 31 32 34 37 38 39 40 41 41 41 42 41 37 33 33 34 35 35 37 37 36 34
8 6 6 5 3 3 3 3 3 1 2 4 8 9 3 2 1 3 4 4 3 3 5 5 6 7 6 6 6 6 6 6 7 7 8 10 14 17 20 23 25 27 30 32 33 35 36 36 38 38 39 40 41 41 41 41 39 37 36 34 33 33 31 30 29 29 29 28 28 29 29 28 28 28 29 30 31 31 33 36 38 39 40 41 40 40 41 40 36 32 32 34 34 35 36 37 36
7 6 6 4 2 4 3 3 3 2 3 7 10 6 1 3 2 5 6 5 3 3 6 4 5 6 6 6 6 6 6 7 6 6 6 8 13 17 19 21 23 24 28 30 31 33 33 34 36 37 38 39 40 40 40 40 40 39 38 36 35 35 33 31 30 29 29 29 29 29 30 30 29 29 29 30 31 30 30 33 36 38 39 39 40 39 39 41 40 37 33 32 33 35 36 37 37
5 4 5 3 3 3 1 2 3 3 4 8 9 3 0 3 2 7 7 5 3 3 5 5 5 5 5 6 6 6 7 7 7 6 6 9 14 17 19 21 22 23 26 28 28 31 32 33 34 35 37 39 40 40 40 39 39 39 39 38 38 37 36 33 31 29 30 30 30 30 30 31 30 31 31 31 31 30 29 31 33 35 37 38 38 38 38 39 39 39 37 35 34 34 34 36 37
3 3 4 2 2 1 2 3 4 4 4 5 4 1 2 2 2 6 5 5 4 3 5 6 6 5 5 5 5 6 6 7 7 7 6 9 14 16 17 20 22 23 26 27 28 29 30 31 33 34 35 37 38 39 40 39 38 38 38 38 40 40 39 36 34 32 32 32 31 30 31 31 31 32 33 33 32 31 31 30 31 33 35 37 37 38 38 37 37 37 37 37 37 36 35 35 36
2 3 3 1 2 3 1 4 4 3 3 3 2 2 3 1 1 4 6 6 3 3 5 8 7 7 5 5 5 6 6 7 8 8 7 10 13 15 16 19 21 23 25 26 28 29 29 30 32 34 35 35 36 38 39 39 39 39 39 38 40 40 40 38 36 35 35 34 32 31 31 31 31 31 32 33 33 33 32 31 29 32 34 36 36 37 38 38 38 37 37 37 37 37 37 37 37
1 2 2 3 2 4 1 2 3 3 3 3 2 4 3 3 2 3 5 3 2 3 6 7 7 7 6 5 5 6 7 7 7 9 10 12 14 15 16 18 20 22 24 26 27 28 29 30 30 32 34 35 35 37 38 38 38 39 39 40 40 39 38 37 37 37 37 36 34 32 32 32 31 31 31 32 33 33 34 33 31 31 34 35 35 35 36 38 38 38 38 37 36 36 36 37 37
1 1 2 2 2 1 2 1 1 2 3 4 3 4 4 4 1 1 2 3 4 5 7 8 8 6 6 6 6 6 7 7 7 8 8 12 14 14 16 17 19 21 23 25 27 29 30 30 31 31 32 33 35 36 38 38 38 38 39 41 42 40 38 37 37 38 37 36 36 34 33 32 32 31 30 31 32 33 34 34 34 33 33 34 36 36 35 36 38 38 37 37 36 36 35 35 35
3 2 4 2 1 1 1 0 1 2 2 4 4 4 2 2 1 4 6 6 7 8 8 8 8 7 6 6 5 5 6 6 7 7 8 12 15 16 16 17 19 21 23 26 28 29 31 31 31 32 32 33 34 36 38 38 38 38 39 41 42 41 39 38 38 38 36 35 36 36 35 33 32 31 30 30 31 33 34 34 34 35 34 35 36 37 36 36 37 38 38 37 36 36 36 35 34
4 3 3 3 2 1 1 1 1 1 1 2 3 4 4 1 4 7 6 6 7 8 9 8 8 7 7 6 5 5 6 6 7 7 8 13 17 17 17 17 19 20 23 27 29 30 31 32 32 33 33 32 33 35 37 38 38 38 39 41 41 41 40 40 40 39 36 36 36 37 37 35 33 32 31 30 31 32 33 33 34 34 35 36 36 37 38 39 37 37 36 36 36 35 36 35 32
2 3 2 2 2 2 2 3 1 1 1 2 3 7 7 3 4 5 3 5 7 9 10 9 9 10 9 6 5 5 5 7 8 8 10 14 17 19 19 18 18 18 21 24 26 29 31 32 33 33 33 32 33 34 35 36 37 38 39 40 40 40 39 40 41 40 39 38 38 38 38 36 35 33 32 31 30 31 32 32 32 32 32 33 35 36 38 39 39 36 35 36 36 35 35 33 32
Wind_Direction
348 352 353 344 319 300 269 229 257 230 221 257 259 260 268 315 26 43 281 89 109 55 30 342 15 10 317 340 332 337 308 300 26 71 352 155 148 158 176 171 153 152 156 164 169 173 172 167 165 168 168 165 165 164 165 169 167 164 166 166 165 164 158 156 154 156 160 165 169 169 172 176 187 187 168 159 150 146 145 146 149 154 159 159 155 154 157 158 160 149 133 130 126 123 116 109 108
344 345 351 339 293 283 277 210 257 262 228 251 249 248 191 64 16 202 8 56 73 58 36 359 357 322 329 330 304 308 280 351 73 95 81 131 136 158 171 154 150 152 154 159 168 171 170 168 168 171 169 166 166 165 168 171 168 166 169 168 168 168 165 164 160 160 161 163 163 165 173 179 182 177 166 161 154 151 151 146 142 148 162 166 164 163 167 170 165 146 134 131 127 124 118 114 113
342 342 339 329 267 231 290 241 250 267 253 251 252 251 163 138 235 97 71 64 61 58 49 6 330 308 289 261 292 312 325 42 75 91 108 139 143 165 162 151 151 154 154 156 165 169 169 170 173 174 171 167 167 167 170 172 169 169 170 170 171 172 171 170 167 165 167 168 167 170 177 179 177 174 168 165 160 156 153 146 143 147 154 160 161 163 164 165 160 145 135 133 129 125 116 118 129
338 331 308 311 270 202 262 239 237 250 259 259 266 299 61 301 281 89 83 82 70 55 37 350 338 299 278 283 335 333 54 54 61 84 122 157 157 160 154 153 153 153 155 155 161 168 170 173 176 174 171 170 169 170 172 172 170 170 169 172 173 175 177 175 173 171 174 177 177 179 182 181 177 176 171 168 164 158 152 145 143 140 136 142 143 142 142 145 145 139 135 134 130 126 117 119 143
328 314 277 277 290 222 268 245 237 233 242 256 268 320 96 268 276 91 94 105 90 59 35 345 344 195 245 287 331 322 57 79 65 81 106 122 141 152 148 151 154 154 157 156 160 168 174 177 178 173 172 172 170 173 176 174 172 171 170 173 175 177 179 178 177 176 182 186 185 183 184 183 179 178 172 170 167 155 145 142 142 137 129 130 133 132 130 136 140 138 137 139 135 130 125 121 134
322 317 265 236 290 324 286 257 245 239 239 250 270 265 183 239 346 70 85 100 95 92 85 330 360 317 266 247 151 38 20 93 82 77 109 126 140 149 146 150 155 155 157 157 160 169 176 179 178 173 173 173 171 176 181 178 175 173 172 173 175 178 181 181 180 181 188 192 190 185 186 182 179 180 173 167 163 154 150 155 155 150 144 135 136 140 140 139 141 145 145 146 146 141 138 134 134
316 323 243 210 273 254 247 250 251 256 249 249 261 275 286 317 53 63 65 94 111 137 130 314 57 316 271 154 137 54 40 64 102 92 120 134 143 146 146 150 155 157 159 157 162 172 179 181 180 176 173 173 174 178 184 182 178 178 177 176 176 179 182 183 182 188 192 194 191 187 187 182 179 181 175 164 158 160 161 167 168 165 162 149 147 152 153 151 148 155 155 156 157 154 150 149 154
291 281 257 243 248 201 228 240 249 254 263 267 264 268 273 300 67 49 283 90 160 170 178 151 90 311 283 72 173 55 51 71 99 108 120 133 143 146 147 151 155 159 163 160 165 176 180 182 182 181 174 172 177 180 187 184 180 185 181 180 179 179 184 186 186 192 194 193 191 189 188 183 182 181 179 169 164 168 163 167 174 173 172 164 161 163 168 162 161 167 167 169 169 169 165 162 168
272 225 276 267 244 241 238 237 247 245 253 267 272 275 269 256 102 218 242 265 282 272 192 124 97 333 327 348 90 74 60 84 100 107 119 133 143 145 148 154 157 158 162 162 171 181 181 181 183 183 175 173 179 181 187 185 184 189 186 183 182 183 187 189 190 195 193 192 191 191 188 187 186 181 181 177 173 175 167 170 176 178 181 179 176 176 190 180 172 178 176 177 177 176 177 176 181
264 207 256 250 239 247 242 243 248 248 251 254 262 271 275 268 214 219 147 272 279 308 45 101 130 242 292 308 90 78 86 103 102 103 116 130 138 144 151 156 158 157 159 163 172 180 179 181 182 183 178 176 180 180 185 189 191 193 191 185 183 190 194 192 197 199 192 191 193 193 191 189 189 184 182 180 179 176 171 174 176 181 189 189 188 190 202 197 183 186 180 182 186 182 185 185 189
260 205 231 257 240 238 240 244 241 249 253 252 256 257 270 272 260 36 29 283 297 289 300 116 209 259 259 280 81 88 102 100 97 101 116 125 132 143 151 155 158 157 158 163 166 171 175 180 181 182 180 179 181 182 186 193 197 196 197 193 186 193 199 195 198 201 198 198 197 196 196 191 191 189 184 183 182 177 175 179 182 187 189 191 193 195 205 202 191 186 182 187 193 191 195 196 192
263 236 190 225 234 242 248 252 251 255 256 256 262 253 259 254 220 176 242 267 270 257 237 145 154 73 298 24 84 86 72 71 88 100 114 119 128 139 148 154 158 157 156 161 162 166 173 178 181 182 183 182 183 185 189 195 201 199 198 198 194 198 204 203 198 196 202 208 206 204 203 196 190 188 185 183 182 181 179 180 189 192 183 189 198 194 201 209 201 188 182 185 193 198 201 202 197
252 268 230 235 228 241 249 259 262 265 270 264 271 285 288 264 190 314 260 263 260 261 307 356 76 69 324 73 100 74 58 62 84 95 107 112 123 133 144 152 157 159 155 155 159 164 172 179 182 183 184 184 186 189 193 198 204 203 198 198 200 205 211 211 203 196 201 210 214 212 208 203 196 191 186 183 183 186 188 186 193 196 188 196 207 207 206 212 211 199 193 195 201 208 208 207 206
270 273 267 263 251 250 249 254 258 258 266 266 297 339 1 7 34 2 324 289 278 359 349 357 43 54 339 107 97 57 64 70 80 90 102 107 117 126 139 150 157 160 158 157 156 160 170 181 184 185 185 185 189 192 196 201 207 207 200 200 203 208 213 213 206 201 203 208 215 215 208 207 204 201 196 191 192 196 199 200 201 202 200 207 215 226 221 206 208 207 206 214 213 217 222 213 207
272 299 297 270 279 268 260 258 265 263 264 291 351 353 351 31 14 342 346 317 342 29 358 14 37 28 9 60 83 64 85 86 90 100 102 104 112 118 135 150 158 157 160 162 161 162 168 179 185 189 188 187 191 194 198 203 210 211 203 201 203 206 209 210 206 205 207 209 214 217 212 213 211 208 206 202 203 205 206 207 209 212 215 220 226 237 227 206 205 209 207 213 216 219 220 205 199
240 323 297 254 266 253 264 266 269 267 296 2 13 356 340 36 19 7 350 328 342 355 348 26 10 8 44 66 91 94 98 108 111 111 109 109 113 113 129 151 158 158 165 169 169 170 171 177 184 190 191 190 193 196 200 204 211 214 206 204 206 206 207 208 208 210 213 212 215 220 220 218 215 210 209 210 209 209 210 213 216 218 222 226 233 241 228 210 206 208 207 205 206 210 208 206 212
231 330 251 252 253 246 275 283 296 291 353 7 9 4 1 10 15 11 330 309 317 323 337 19 356 38 69 87 98 104 109 116 117 120 118 118 123 119 135 160 162 166 175 179 179 177 176 178 182 189 192 193 195 198 202 206 211 213 209 208 210 211 210 210 212 214 216 216 216 221 225 221 217 212 209 212 213 214 216 218 219 221 221 224 233 238 228 217 211 206 208 204 200 206 206 214 227
222 195 219 236 240 261 354 30 12 350 4 360 355 6 5 3 13 1 325 321 330 289 279 311 30 71 81 89 86 100 113 113 124 135 128 136 148 140 155 178 176 175 182 189 188 185 183 181 184 188 191 194 196 199 202 208 212 213 212 209 210 214 214 214 215 215 216 218 219 223 228 225 220 220 218 218 220 222 223 223 226 229 228 228 232 236 230 224 218 210 212 209 206 213 216 223 233
223 219 223 227 255 2 36 35 23 12 360 350 353 356 355 13 15 347 337 349 341 316 354 3 31 65 75 85 75 75 92 101 124 165 153 167 184 167 167 180 194 188 186 195 197 192 189 186 188 189 191 193 195 198 200 205 210 212 213 211 211 213 214 217 217 215 215 218 221 225 229 228 224 224 226 229 234 233 232 233 235 233 229 229 228 230 231 224 216 215 216 209 205 213 217 224 234
233 230 233 203 30 18 43 26 12 13 350 347 356 340 341 13 4 337 351 344 327 340 29 11 7 27 24 50 63 44 45 84 93 283 241 214 216 213 186 183 199 201 192 196 201 200 196 194 194 193 193 193 194 199 200 202 207 210 211 212 213 214 215 217 218 216 216 217 220 226 230 230 226 225 225 232 239 234 231 233 235 233 225 224 224 225 229 224 215 217 221 210 205 211 213 222 233
295 258 250 47 38 2 36 21 3 1 341 346 349 332 350 4 346 337 353 345 317 339 25 9 346 352 352 351 2 357 2 29 135 244 282 278 247 238 228 211 206 207 200 194 199 203 203 201 199 198 197 195 195 201 201 199 204 207 206 208 212 216 217 218 219 217 216 217 218 224 230 227 224 225 224 229 232 224 222 226 232 233 225 221 222 224 226 221 216 216 222 217 211 213 219 232 234
320 315 281 324 38 354 4 12 1 352 335 335 339 341 351 340 332 342 340 332 312 330 357 351 333 334 337 329 324 333 350 334 301 219 233 267 280 267 250 241 219 204 199 194 198 204 205 204 203 202 200 199 198 201 201 197 201 202 200 203 207 213 218 219 219 218 214 216 217 220 225 222 220 222 220 225 229 223 223 228 233 233 226 222 222 228 227 218 218 220 224 227 222 221 227 236 233
309 306 294 326 36 4 344 359 356 350 335 328 330 331 332 327 334 343 331 321 321 327 332 337 338 335 334 333 332 347 354 341 343 342 309 267 275 286 288 272 242 208 196 199 204 205 206 205 205 204 202 201 199 201 202 199 202 203 199 200 203 207 213 214 216 217 213 215 218 216 219 220 218 221 220 225 228 223 223 227 233 233 227 225 228 232 226 215 220 224 226 228 227 230 231 232 230
299 307 327 348 15 1 343 347 341 339 325 316 317 316 322 328 330 342 333 317 313 317 325 340 349 340 339 342 345 357 360 1 0 354 352 350 335 312 309 303 284 234 200 203 212 212 209 207 207 206 206 205 201 202 204 202 204 205 202 201 204 206 210 211 212 214 212 216 218 215 217 220 220 221 223 227 224 216 219 225 227 228 227 227 227 229 222 214 220 224 222 221 221 227 227 225 225
9 343 341 346 349 345 338 330 321 323 313 305 310 309 313 314 319 321 305 305 315 321 336 348 351 344 341 339 350 5 3 3 358 355 360 355 347 337 324 311 300 275 230 215 216 220 218 211 209 209 210 209 205 204 206 206 205 205 205 206 207 208 209 211 212 213 213 216 218 215 216 219 220 222 223 227 226 218 220 223 222 224 226 225 221 222 222 215 216 221 221 218 216 221 222 220 221
21 347 337 336 327 326 321 308 304 304 296 294 303 304 308 312 328 301 272 328 351 341 343 353 3 352 350 360 7 9 1 5 1 359 3 357 350 341 333 322 295 277 269 257 227 219 224 219 213 213 214 212 209 208 208 209 210 208 209 211 211 211 212 213 212 214 215 215 216 218 217 217 218 221 222 224 226 225 224 222 221 222 223 222 220 220 221 218 215 217 219 219 218 220 221 222 224
349 331 324 318 304 298 284 280 298 301 310 343 335 326 316 311 315 269 259 34 10 343 337 352 18 359 360 15 8 2 5 8 2 4 8 5 360 351 346 343 329 294 263 267 257 227 220 225 222 219 219 217 214 213 212 213 216 214 213 215 216 215 215 215 214 217 216 215 217 219 219 218 218 219 221 222 223 225 225 223 223 222 221 222 222 220 220 220 218 218 220 221 222 223 223 224 227
313 306 309 299 278 275 265 266 341 336 7 15 350 318 289 264 251 252 327 23 6 354 347 356 23 15 7 10 1 1 9 9 11 18 18 8 2 359 357 355 351 343 308 265 266 247 222 224 231 228 224 222 221 221 217 216 219 220 218 218 219 219 219 217 217 219 219 218 219 220 220 219 218 217 218 220 221 221 222 224 224 224 223 221 220 220 220 220 220 220 221 222 223 225 227 227 228
280 278 287 292 277 307 13 41 15 346 17 5 337 300 269 232 144 62 52 23 6 9 7 5 11 20 13 5 360 357 14 25 28 26 18 10 6 2 359 356 355 352 345 329 295 265 237 229 235 236 231 228 228 229 224 220 219 221 222 221 220 222 222 220 219 221 223 223 221 220 220 220 220 218 218 219 221 221 221 221 223 223 224 222 220 220 220 220 221 222 222 224 225 226 228 228 228
286 294 244 296 289 73 50 49 13 351 23 0 334 310 313 110 90 68 57 23 16 11 2 360 355 10 6 349 8 20 31 32 31 26 19 15 10 3 360 358 357 354 351 348 335 304 265 246 240 236 235 234 237 238 233 228 224 223 225 225 224 224 225 223 220 221 223 224 225 224 223 221 221 221 219 220 222 222 220 219 220 221 221 222 221 220 221 221 220 221 221 223 224 224 225 225 225
341 337 54 354 357 60 43 68 37 8 15 355 336 300 32 92 81 61 56 26 15 2 352 353 341 343 337 358 41 40 37 31 27 24 20 17 12 7 5 4 1 357 355 352 347 337 306 276 260 238 232 235 242 247 243 237 232 228 228 228 226 224 227 228 225 223 224 225 226 226 225 223 222 222 221 221 223 223 220 220 220 220 220 220 220 220 221 221 219 220 221 222 223 223 224 224 224
10 355 28 9 360 20 7 64 61 27 2 352 343 307 314 43 33 25 34 15 3 354 346 345 345 3 15 31 43 41 33 28 26 22 18 15 13 11 10 7 4 1 1 358 356 352 339 309 286 255 235 230 235 246 250 247 242 236 231 231 231 229 231 232 229 227 227 227 227 228 227 226 224 223 222 221 223 225 222 222 222 220 219 217 218 219 218 219 219 219 220 221 221 221 222 223 224
18 11 14 5 353 355 354 23 47 31 7 351 344 325 309 323 353 3 8 2 349 336 342 3 20 31 34 37 38 37 30 26 24 19 16 15 13 12 12 9 7 6 5 3 2 0 357 347 326 294 256 235 231 241 247 247 247 246 240 234 232 234 238 239 235 233 233 230 229 228 229 228 226 223 222 221 222 225 224 224 223 221 218 217 217 218 218 219 218 219 219 219 220 220 220 222 223
15 14 360 11 355 347 3 358 14 22 6 344 334 309 304 325 347 352 345 338 334 343 13 35 43 39 35 35 31 30 27 23 21 16 14 14 13 13 13 11 10 10 8 5 5 4 2 0 354 339 309 264 243 239 242 241 241 243 247 243 235 233 238 243 241 238 238 237 233 230 230 230 229 226 224 222 222 224 224 225 224 221 220 218 217 217 218 218 218 220 220 219 220 221 220 220 222
359 4 349 12 2 358 5 349 1 16 359 336 323 310 333 340 337 338 348 9 27 35 41 45 43 38 33 30 28 25 23 20 16 13 13 13 12 13 13 12 11 11 10 7 6 7 5 1 359 355 347 325 281 252 244 241 237 236 239 245 246 241 239 241 243 240 240 242 239 234 232 232 231 229 225 222 223 223 223 225 225 222 221 219 216 217 217 216 215 218 221 220 219 222 222 221 223
1 360 357 2 2 5 355 341 0 13 356 329 331 349 342 321 323 360 31 42 47 45 43 42 37 36 32 26 25 22 21 16 10 11 13 13 13 13 13 12 12 12 11 9 7 7 6 2 359 356 354 349 335 302 264 246 236 233 234 238 243 247 246 242 241 241 238 239 241 238 236 233 231 231 228 223 222 223 223 224 224 222 222 221 217 216 216 214 214 215 218 219 217 220 224 224 225
15 5 3 0 8 2 335 334 4 11 351 317 337 351 323 326 31 46 51 48 46 43 40 38 34 33 29 24 22 19 20 10 6 11 13 13 12 12 13 11 11 12 11 9 8 7 5 3 360 356 352 351 350 342 318 279 241 229 230 234 238 242 249 250 249 247 240 238 241 241 239 235 231 230 230 226 223 223 223 222 222 221 221 221 219 219 218 217 216 215 216 217 215 216 219 222 222
32 14 2 4 11 345 318 332 359 353 327 306 335 347 352 42 57 51 52 49 44 41 38 35 30 30 27 23 19 15 17 8 6 12 12 12 11 11 12 11 10 10 10 8 7 5 4 3 0 356 353 351 350 349 343 328 296 256 236 232 233 236 241 250 257 256 249 243 243 242 241 238 234 231 231 229 225 223 221 220 222 222 221 220 221 222 221 220 219 216 214 214 215 215 216 219 216
40 22 5 10 360 334 317 336 346 335 314 326 332 2 41 53 56 49 51 51 47 43 41 38 29 26 24 20 16 11 13 10 7 10 10 10 11 10 10 9 9 9 8 7 5 5 4 2 0 356 354 353 350 349 347 341 331 315 280 244 233 235 240 244 251 256 252 246 244 243 242 240 237 233 231 231 227 223 221 222 223 222 221 220 221 221 221 220 220 218 215 212 212 214 217 219 215
51 34 12 3 355 350 326 324 332 323 302 340 358 58 59 42 44 48 47 45 47 45 42 43 35 28 23 20 17 12 12 11 7 8 8 8 9 10 10 8 8 8 8 6 5 4 2 360 359 358 356 354 352 351 348 344 339 333 322 288 250 240 244 245 248 253 252 247 245 244 242 241 240 236 233 231 230 227 224 223 222 221 220 220 220 220 219 218 218 217 215 212 209 208 213 218 216
30 42 25 355 342 339 310 313 324 310 283 349 19 61 51 15 31 38 31 41 44 38 36 37 34 29 23 22 20 15 15 12 8 9 7 6 8 9 9 9 9 9 8 4 3 3 1 359 358 358 357 356 354 352 350 349 345 340 337 327 293 258 247 247 252 256 254 249 245 242 241 240 241 241 239 235 232 231 228 226 224 223 222 222 222 222 221 219 218 216 214 213 211 208 210 213 215
349 32 19 348 328 321 322 329 324 323 359 359 14 70 67 360 39 24 2 40 39 31 36 31 25 24 22 24 21 15 16 13 11 11 7 7 7 7 8 10 10 9 6 3 2 2 0 360 359 358 357 357 356 354 352 351 349 344 339 335 323 296 267 252 251 253 254 252 249 246 244 242 240 241 243 241 237 234 231 228 227 226 225 224 224 222 222 221 219 217 215 214 214 213 212 208 211
328 359 353 335 318 317 337 338 318 355 10 318 351 51 175 186 51 13 352 36 34 28 37 30 23 22 18 19 19 16 14 11 12 12 10 8 8 8 8 9 10 8 5 3 3 2 1 1 1 0 358 357 357 355 354 352 349 346 341 335 329 320 305 285 269 258 254 253 253 251 247 244 241 239 240 241 240 238 235 231 229 228 227 226 224 222 221 221 221 220 218 216 216 215 212 208 210
323 333 332 318 310 313 329 319 298 336 327 297 3 20 41 114 54 333 341 24 24 22 30 27 24 22 17 15 16 17 16 12 13 12 11 11 10 9 8 9 9 7 5 5 5 3 2 2 1 1 1 360 358 356 355 354 350 346 343 339 333 327 321 312 302 286 271 262 257 255 250 246 243 241 239 240 239 238 237 235 232 231 231 229 227 225 224 223 223 223 221 219 218 217 213 213 214
312 319 315 299 294 292 290 290 284 326 356 348 2 8 18 247 260 280 355 26 18 17 23 18 18 21 17 14 14 17 16 15 16 13 11 11 10 9 8 8 8 7 6 6 6 5 4 4 3 3 3 2 0 358 356 354 353 348 344 342 337 332 327 321 315 306 293 280 270 263 256 251 248 244 241 239 237 235 234 235 234 232 232 232 231 230 228 226 224 223 221 219 218 218 216 215 216
311 310 301 280 259 246 253 268 276 327 22 4 355 5 10 259 297 354 11 33 7 4 16 12 14 20 17 15 16 15 13 15 16 13 12 12 11 9 7 8 8 7 6 4 4 5 5 5 4 4 4 2 1 1 358 355 353 352 348 343 338 334 331 326 321 314 305 293 281 272 264 259 256 253 248 242 237 234 233 233 232 232 232 232 233 234 233 229 226 223 222 220 218 218 217 216 217
322 313 303 284 234 212 234 248 257 316 25 16 3 353 341 285 289 317 359 59 308 336 9 9 10 20 20 16 15 16 13 12 11 8 9 11 11 10 7 6 7 6 5 4 4 3 3 3 3 2 2 2 0 360 360 358 355 353 349 345 339 334 331 328 324 318 313 305 294 283 273 265 259 256 255 250 243 237 234 232 232 232 232 232 233 234 235 233 229 226 223 221 219 218 217 217 219
340 329 335 354 319 263 297 299 345 17 276 0 2 344 328 270 264 238 185 234 271 339 17 8 7 15 15 15 14 14 12 10 8 3 3 6 10 10 7 4 3 3 3 2 2 0 360 360 359 359 359 360 359 358 358 357 356 354 350 346 342 337 333 329 325 320 316 312 304 295 285 274 264 257 255 254 249 240 235 233 231 231 231 231 231 232 234 236 235 230 224 221 219 218 218 218 221
353 346 360 16 9 6 358 339 2 333 275 340 352 351 335 253 275 150 173 232 262 25 37 13 9 14 8 10 12 8 8 8 5 1 359 3 7 7 6 3 1 1 1 359 359 358 357 356 356 355 355 356 357 356 356 355 355 354 351 348 345 341 335 330 326 321 317 314 309 305 298 286 275 264 257 255 254 247 237 233 230 229 229 230 230 231 233 235 237 235 228 224 222 220 219 219 220
344 352 14 23 31 19 346 331 338 287 300 322 328 347 347 270 279 159 173 210 229 53 55 31 20 25 8 3 9 6 4 2 359 360 1 3 4 3 3 2 360 359 358 357 356 356 354 354 353 352 350 351 353 354 353 353 353 352 350 349 346 342 338 331 326 322 319 315 310 307 304 298 289 279 268 260 258 255 244 237 233 231 230 229 229 230 231 232 234 235 233 229 227 225 223 221 221
309 336 30 39 52 47 316 328 330 289 304 309 309 325 270 298 239 172 171 189 196 66 61 41 29 38 18 1 5 7 2 358 351 349 3 7 2 359 359 358 357 357 356 355 355 354 353 351 350 350 348 347 349 351 351 350 349 349 348 348 346 344 340 334 328 325 322 317 312 308 305 302 298 291 284 274 266 260 253 245 239 234 232 229 228 227 228 229 229 231 232 232 232 230 226 224 222
287 349 39 53 68 87 255 269 257 265 303 300 284 293 350 345 168 161 161 185 179 77 50 33 19 20 31 15 3 6 359 354 350 342 355 6 0 356 357 356 354 354 354 353 352 352 351 349 348 347 346 345 346 347 348 347 345 346 346 346 346 345 343 339 334 329 326 322 316 311 306 303 300 296 291 286 277 269 262 254 244 240 237 232 228 227 226 227 226 227 229 230 231 230 228 226 224
288 3 4 257 159 134 234 283 266 270 297 283 284 329 346 21 179 175 177 188 161 69 30 29 11 353 17 20 5 7 356 349 348 342 345 354 354 353 356 356 353 351 351 349 350 349 348 347 346 345 345 344 344 345 344 344 343 342 343 343 344 344 344 342 338 332 329 326 321 315 310 306 303 300 295 290 285 278 271 263 253 245 240 236 231 227 225 225 225 225 227 228 228 227 228 228 226
350 38 326 308 84 101 132 281 306 318 290 276 314 331 319 318 305 183 189 200 77 37 16 22 3 348 1 4 8 9 353 347 344 340 341 343 346 349 352 353 350 348 348 346 346 346 345 345 344 344 343 342 341 342 342 342 341 341 340 340 341 342 342 341 339 336 331 329 325 320 315 311 306 303 300 295 290 284 277 270 260 249 242 239 236 230 226 225 224 224 226 227 227 226 226 226 226
342 63 12 5 66 24 314 285 302 298 287 284 305 343 317 285 305 84 286 340 23 14 8 4 348 351 1 355 4 2 348 344 339 337 337 335 338 342 345 347 347 346 346 345 344 344 343 343 343 342 341 340 339 340 340 340 340 339 338 338 337 338 339 340 339 337 334 331 329 326 321 316 312 308 304 300 295 291 284 275 267 257 250 244 240 235 229 226 224 223 223 225 226 225 225 225 225
329 6 32 30 154 235 279 359 203 231 282 293 304 338 297 229 50 355 330 0 19 3 358 349 339 352 2 353 354 351 345 339 332 335 333 329 330 333 338 343 346 347 347 346 344 343 342 340 340 340 339 339 339 340 339 338 337 337 337 337 336 335 335 337 337 337 335 333 331 330 326 319 315 312 308 303 298 295 291 285 275 265 255 246 242 239 236 232 228 224 222 223 224 223 224 225 224
339 3 37 8 334 250 248 252 180 191 275 284 300 294 248 206 12 333 324 13 18 356 346 339 339 347 349 348 345 341 339 331 329 331 328 326 326 327 333 340 343 346 348 347 344 342 340 339 338 339 338 338 338 338 337 336 334 334 334 335 335 333 332 333 335 336 335 334 332 332 330 325 319 314 312 306 301 299 296 292 285 275 262 250 244 242 239 235 230 225 222 222 223 223 223 223 223
348 344 46 36 347 20 357 299 279 67 297 255 287 282 266 271 319 307 343 26 3 347 342 338 341 340 335 332 333 337 337 328 328 330 325 324 324 324 326 329 335 343 345 344 342 340 338 336 336 336 335 335 335 335 334 333 332 332 332 332 332 332 331 331 333 334 334 333 333 332 332 330 323 318 315 311 305 303 302 298 291 283 273 260 248 241 239 235 231 228 227 224 223 221 219 219 223